Lewiston, WA

8:31 PM PST on February 25, 2018 (GMT -0800)
Lewiston-Nez Perce County

Weather History for KLWS - January, 2012

Change the Weather History Date:

Tuesday, January 10, 2012

  Actual Average Record
Temperature  
Mean Temperature 36 °F 35 °F  
Max Temperature 45 °F 41 °F 60 °F (1983)
Min Temperature 26 °F 29 °F -5 °F (1949)
Degree Days  
Heating Degree Days 29 30  
Month to date heating degree days 257 307  
Since 1 July heating degree days 2353 2515  
Cooling Degree Days 0 0  
Month to date cooling degree days 0 0  
Year to date cooling degree days 0 0  
Moisture  
Dew Point 29 °F    
Average Humidity 65    
Maximum Humidity 86    
Minimum Humidity 43    
Precipitation  
Precipitation 0.06 in 0.04 in 0.49 in (1988)
Month to date precipitation 0.06 0.36  
Year to date precipitation 0.06 0.36  
Snow  
Snow 0.00 in 0.00 in 4.30 in (1965)
Month to date snowfall T 0.9  
Since 1 July snowfall 1.5 6.2  
Snow Depth 0.00 in    
Sea Level Pressure  
Sea Level Pressure 30.31 in    
Wind  
Wind Speed 9 mph (WNW)    
Max Wind Speed 18 mph    
Max Gust Speed 26 mph    
Visibility 10 miles    
Events Rain    
T = Trace of Precipitation, MM = Missing Value Source: NWS Daily Summary

Daily Weather History Graph

Daily Weather History Graph

Search for Another Location

Airport or City:

Trip Planner

Search our weather history database for the weather conditions in past years. The results will help you decide how hot, cold, wet, or windy it might be!

Date:

Astronomy

Jan. 10, 2012 Rise Set
Actual Time 7:29 AM PST 4:21 PM PST
Civil Twilight 6:55 AM PST 4:55 PM PST
Nautical Twilight 6:18 AM PST 5:33 PM PST
Astronomical Twilight 5:41 AM PST 6:09 PM PST
Moon 6:26 PM PST (1/10) 8:03 AM PST (1/10)
Length of Visible Light 9h 59m
Length of Day
8h 51m
Full, 97% of the Moon is Illuminated
Jan 10
Full
Jan 16
Last Quarter
Jan 22
New
Jan 30
First Quarter
Feb 7
Full

Hourly Weather History & Observations

Time (PST) Temp. Windchill Dew Point Humidity Pressure Visibility Wind Dir Wind Speed Gust Speed Precip Events Conditions
12:56 AM 44.1 °F 42.5 °F 30.0 °F 58% 30.11 in 10.0 mi WSW 3.5 mph - N/A   Overcast
1:56 AM 42.1 °F - 30.0 °F 62% 30.10 in 10.0 mi Calm Calm - N/A   Overcast
2:56 AM 42.1 °F - 30.9 °F 65% 30.12 in 10.0 mi Calm Calm - N/A   Overcast
3:56 AM 42.1 °F 35.2 °F 34.0 °F 73% 30.13 in 10.0 mi NW 12.7 mph - N/A   Overcast
4:17 AM 41.0 °F 37.1 °F 35.6 °F 81% 30.12 in 10.0 mi NW 5.8 mph - 0.00 in Rain Light Rain
4:56 AM 41.0 °F 35.2 °F 36.0 °F 82% 30.16 in 10.0 mi West 9.2 mph - 0.03 in Rain Light Rain
5:56 AM 41.0 °F 36.4 °F 37.0 °F 86% 30.19 in 10.0 mi West 6.9 mph - 0.03 in Rain Light Rain
6:47 AM 39.2 °F 35.0 °F 37.4 °F 93% 30.18 in 10.0 mi West 5.8 mph - 0.00 in   Overcast
6:56 AM 39.9 °F 36.7 °F 37.0 °F 89% 30.21 in 10.0 mi West 4.6 mph - 0.00 in   Overcast
7:10 AM 39.2 °F - 37.4 °F 93% 30.20 in 10.0 mi Calm Calm - N/A   Overcast
7:19 AM 41.0 °F - 35.6 °F 81% 30.20 in 10.0 mi Calm Calm - N/A   Overcast
7:45 AM 39.2 °F 35.0 °F 37.4 °F 93% 30.21 in 10.0 mi SSW 5.8 mph - N/A   Overcast
7:56 AM 39.9 °F 33.4 °F 34.0 °F 79% 30.23 in 10.0 mi WSW 10.4 mph - N/A   Mostly Cloudy
8:56 AM 39.9 °F 33.9 °F 32.0 °F 73% 30.26 in 10.0 mi West 9.2 mph - N/A   Scattered Clouds
9:56 AM 42.8 °F 34.8 °F 30.2 °F 61% 30.26 in 10.0 mi West 17.3 mph 24.2 mph N/A   Clear
10:56 AM 43.0 °F 36.0 °F 30.0 °F 60% 30.30 in 10.0 mi WNW 13.8 mph 23.0 mph N/A   Overcast
11:56 AM 44.1 °F 36.8 °F 30.0 °F 58% 30.31 in 10.0 mi WNW 16.1 mph - N/A   Mostly Cloudy
12:56 PM 43.0 °F 37.2 °F 30.0 °F 60% 30.32 in 10.0 mi WNW 10.4 mph - N/A   Scattered Clouds
1:56 PM 42.1 °F 35.2 °F 28.9 °F 60% 30.33 in 10.0 mi WNW 12.7 mph - N/A   Clear
2:20 PM 42.8 °F 35.8 °F 28.4 °F 57% 30.31 in 10.0 mi West 13.8 mph 20.7 mph N/A   Mostly Cloudy
2:53 PM 42.8 °F 35.4 °F 28.4 °F 57% 30.32 in 10.0 mi West 15.0 mph - N/A   Partly Cloudy
2:56 PM 43.0 °F 35.7 °F 28.9 °F 58% 30.35 in 10.0 mi WNW 15.0 mph - N/A   Partly Cloudy
3:25 PM 41.0 °F 33.5 °F 30.2 °F 65% 30.34 in 10.0 mi NW 13.8 mph - N/A   Mostly Cloudy
3:34 PM 39.2 °F 32.5 °F 30.2 °F 70% 30.35 in 10.0 mi NW 10.4 mph - N/A   Mostly Cloudy
3:56 PM 39.9 °F 32.5 °F 30.9 °F 70% 30.39 in 10.0 mi WNW 12.7 mph - N/A   Overcast
4:56 PM 37.9 °F 31.5 °F 30.0 °F 73% 30.43 in 10.0 mi WNW 9.2 mph - N/A   Partly Cloudy
5:22 PM 37.4 °F 32.8 °F 30.2 °F 75% 30.40 in 10.0 mi West 5.8 mph - N/A   Mostly Cloudy
5:37 PM 37.4 °F 31.4 °F 28.4 °F 70% 30.40 in 10.0 mi WNW 8.1 mph - N/A   Mostly Cloudy
5:56 PM 37.0 °F 34.5 °F 28.9 °F 73% 30.45 in 10.0 mi West 3.5 mph - N/A   Mostly Cloudy
6:56 PM 35.1 °F 30.1 °F 27.0 °F 72% 30.47 in 10.0 mi NW 5.8 mph - N/A   Partly Cloudy
7:56 PM 32.0 °F 27.5 °F 19.0 °F 59% 30.51 in 10.0 mi NNW 4.6 mph - N/A   Clear
8:56 PM 32.0 °F 24.2 °F 12.9 °F 45% 30.52 in 10.0 mi NW 9.2 mph - N/A   Clear
9:56 PM 30.0 °F 23.2 °F 12.0 °F 47% 30.54 in 10.0 mi West 6.9 mph - N/A   Clear
10:56 PM 28.0 °F 21.7 °F 12.0 °F 51% 30.57 in 10.0 mi WSW 5.8 mph - N/A   Clear
11:56 PM 26.1 °F 19.4 °F 12.9 °F 58% 30.56 in 10.0 mi WSW 5.8 mph - N/A   Clear